AUA4D EDDS-LOWW

Flight info

Callsign AUA4D
Flight time 0h 53m
Altitude 31000
Route ABTAL4H/07 ABTAL L173 RIXED Y161 RIDAR Z98 MIQ L605 BIBAG Q104 AKIMA DCT MASUR MASUR3W
Aircraft A320/M-SDE3FGHIRWY/LB1

Departure

Time 2026-04-26 11:16
Airport Stuttgart Airport (EDDS)

Arrival

Time 2026-04-26 12:09
Airport Vienna International Airport (LOWW)
Time Latitude Longitude Altitude Speed Heading
2026-04-26 10:37 48.68943 9.19719 1290 ft 0 kts 343°
2026-04-26 11:06 48.68942 9.19720 1285 ft 1 kts 343°
2026-04-26 11:06 48.68926 9.19726 1290 ft 3 kts 351°
2026-04-26 11:07 48.68906 9.19729 1290 ft 3 kts
2026-04-26 11:07 48.68887 9.19724 1290 ft 3 kts 23°
2026-04-26 11:07 48.68871 9.19710 1289 ft 3 kts 53°
2026-04-26 11:07 48.68864 9.19694 1290 ft 1 kts 73°
2026-04-26 11:08 48.68864 9.19693 1290 ft 0 kts 73°
2026-04-26 11:12 48.68866 9.19704 1289 ft 4 kts 74°
2026-04-26 11:12 48.68875 9.19752 1287 ft 4 kts 75°
2026-04-26 11:12 48.68883 9.19795 1285 ft 6 kts 75°
2026-04-26 11:13 48.68887 9.19840 1285 ft 6 kts 94°
2026-04-26 11:13 48.68846 9.19885 1285 ft 6 kts 165°
2026-04-26 11:13 48.68799 9.19931 1287 ft 9 kts 148°
2026-04-26 11:13 48.68760 9.19953 1287 ft 9 kts 165°
2026-04-26 11:14 48.68705 9.19976 1289 ft 8 kts 164°
2026-04-26 11:14 48.68663 9.19995 1287 ft 6 kts 163°
2026-04-26 11:14 48.68628 9.20010 1289 ft 5 kts 163°
2026-04-26 11:14 48.68589 9.20033 1287 ft 10 kts 149°
2026-04-26 11:15 48.68593 9.20121 1288 ft 9 kts 72°
2026-04-26 11:15 48.68643 9.20379 1287 ft 60 kts 73°
2026-04-26 11:15 48.68826 9.21344 1286 ft 127 kts 74°
2026-04-26 11:15 48.69114 9.22875 1481 ft 160 kts 73°
2026-04-26 11:16 48.69398 9.24499 2279 ft 159 kts 73°
2026-04-26 11:16 48.69701 9.26144 2917 ft 169 kts 71°
2026-04-26 11:16 48.70049 9.27935 3382 ft 190 kts 72°
2026-04-26 11:16 48.70454 9.29953 3738 ft 212 kts 72°
2026-04-26 11:17 48.70904 9.32227 4218 ft 238 kts 73°
2026-04-26 11:17 48.71399 9.34745 4789 ft 259 kts 73°
2026-04-26 11:17 48.71908 9.37419 5664 ft 267 kts 73°
2026-04-26 11:17 48.72419 9.40163 6614 ft 272 kts 73°
2026-04-26 11:18 48.72939 9.42943 7518 ft 276 kts 73°
2026-04-26 11:18 48.73469 9.45759 8462 ft 280 kts 72°
2026-04-26 11:18 48.73998 9.48591 9403 ft 285 kts 73°
2026-04-26 11:18 48.74281 9.51579 10284 ft 292 kts 92°
2026-04-26 11:19 48.74004 9.54739 10732 ft 314 kts 97°
2026-04-26 11:19 48.73629 9.58131 11033 ft 338 kts 98°
2026-04-26 11:19 48.73201 9.61742 11522 ft 353 kts 99°
2026-04-26 11:19 48.72755 9.65437 12273 ft 360 kts 99°
2026-04-26 11:20 48.72308 9.69161 13040 ft 365 kts 99°
2026-04-26 11:20 48.72008 9.71685 13536 ft 369 kts 99°
2026-04-26 11:20 48.71401 9.76847 14504 ft 375 kts 99°
2026-04-26 11:20 48.70943 9.80767 15190 ft 379 kts 100°
2026-04-26 11:21 48.70479 9.84734 15874 ft 383 kts 100°
2026-04-26 11:21 48.70018 9.88670 16547 ft 387 kts 100°
2026-04-26 11:21 48.69544 9.92705 17230 ft 391 kts 100°
2026-04-26 11:21 48.69064 9.96772 17921 ft 394 kts 100°
2026-04-26 11:22 48.68575 10.00886 18594 ft 398 kts 100°
2026-04-26 11:22 48.68077 10.05041 19171 ft 402 kts 101°
2026-04-26 11:22 48.67576 10.09232 19756 ft 406 kts 101°
2026-04-26 11:22 48.67068 10.13471 20336 ft 411 kts 101°
2026-04-26 11:23 48.66561 10.17701 20901 ft 415 kts 101°
2026-04-26 11:23 48.66043 10.22014 21459 ft 419 kts 101°
2026-04-26 11:23 48.65518 10.26368 21997 ft 423 kts 101°
2026-04-26 11:23 48.64981 10.30794 22534 ft 427 kts 101°
2026-04-26 11:24 48.64440 10.35231 23044 ft 431 kts 101°
2026-04-26 11:24 48.63889 10.39709 23546 ft 435 kts 101°
2026-04-26 11:24 48.63330 10.44227 23998 ft 439 kts 101°
2026-04-26 11:24 48.62765 10.48789 24413 ft 442 kts 101°
2026-04-26 11:25 48.62196 10.53369 24828 ft 445 kts 101°
2026-04-26 11:25 48.61630 10.57938 25226 ft 448 kts 101°
2026-04-26 11:25 48.61054 10.62588 25624 ft 450 kts 101°
2026-04-26 11:25 48.60475 10.67255 26011 ft 453 kts 101°
2026-04-26 11:26 48.59889 10.71956 26393 ft 456 kts 101°
2026-04-26 11:26 48.59297 10.76674 26772 ft 458 kts 102°
2026-04-26 11:26 48.58821 10.81468 27131 ft 462 kts 95°
2026-04-26 11:26 48.58674 10.86263 27483 ft 464 kts 92°
2026-04-26 11:27 48.58547 10.91165 27838 ft 467 kts 92°
2026-04-26 11:27 48.58417 10.96083 28187 ft 469 kts 92°
2026-04-26 11:27 48.58281 11.01029 28519 ft 472 kts 92°
2026-04-26 11:27 48.58143 11.05945 28839 ft 474 kts 92°
2026-04-26 11:28 48.58002 11.10998 29153 ft 476 kts 92°
2026-04-26 11:28 48.57867 11.15947 29448 ft 479 kts 92°
2026-04-26 11:28 48.57756 11.21000 29739 ft 481 kts 92°
2026-04-26 11:28 48.57666 11.26075 30019 ft 483 kts 91°
2026-04-26 11:29 48.57585 11.31156 30281 ft 485 kts 91°
2026-04-26 11:29 48.57501 11.36216 30506 ft 487 kts 91°
2026-04-26 11:29 48.57407 11.41333 30808 ft 486 kts 91°
2026-04-26 11:29 48.57306 11.46441 31123 ft 485 kts 91°
2026-04-26 11:30 48.57200 11.51535 31225 ft 482 kts 91°
2026-04-26 11:30 48.57130 11.54883 31249 ft 477 kts 91°
2026-04-26 11:30 48.56072 11.66332 31240 ft 473 kts 103°
2026-04-26 11:31 48.54653 11.76030 31246 ft 473 kts 103°
2026-04-26 11:31 48.53236 11.85705 31239 ft 471 kts 102°
2026-04-26 11:32 48.51809 11.95378 31239 ft 471 kts 102°
2026-04-26 11:32 48.50373 12.05037 31243 ft 471 kts 102°
2026-04-26 11:33 48.48929 12.14710 31245 ft 471 kts 103°
2026-04-26 11:33 48.47475 12.24276 31245 ft 471 kts 102°
2026-04-26 11:34 48.46014 12.33918 31248 ft 471 kts 102°
2026-04-26 11:34 48.44554 12.43553 31239 ft 471 kts 102°
2026-04-26 11:35 48.43093 12.53102 31246 ft 470 kts 103°
2026-04-26 11:35 48.41859 12.61101 31241 ft 470 kts 103°
2026-04-26 11:36 48.40156 12.72284 31237 ft 470 kts 99°
2026-04-26 11:36 48.39941 12.82106 31240 ft 468 kts 86°
2026-04-26 11:37 48.40253 12.91856 31226 ft 468 kts 86°
2026-04-26 11:37 48.40518 13.01664 31245 ft 469 kts 86°
2026-04-26 11:38 48.40778 13.11483 31240 ft 469 kts 86°
2026-04-26 11:38 48.41043 13.21249 31237 ft 468 kts 86°
2026-04-26 11:39 48.41302 13.31092 31235 ft 468 kts 86°
2026-04-26 11:39 48.41750 13.40811 31231 ft 468 kts 83°
2026-04-26 11:40 48.42407 13.50589 31229 ft 468 kts 83°
2026-04-26 11:40 48.43038 13.60305 31231 ft 468 kts 83°
2026-04-26 11:42 48.45172 13.99314 31238 ft 467 kts 84°
2026-04-26 11:43 48.45435 14.04213 31125 ft 468 kts 84°
2026-04-26 11:43 48.45697 14.09100 30600 ft 466 kts 84°
2026-04-26 11:43 48.45953 14.13934 29956 ft 467 kts 84°
2026-04-26 11:43 48.46208 14.18839 29675 ft 470 kts 84°
2026-04-26 11:44 48.46463 14.23775 29395 ft 471 kts 84°
2026-04-26 11:44 48.46717 14.28727 29116 ft 472 kts 84°
2026-04-26 11:44 48.46967 14.33606 28763 ft 471 kts 84°
2026-04-26 11:44 48.47216 14.38525 27775 ft 470 kts 84°
2026-04-26 11:45 48.47459 14.43426 26993 ft 466 kts 84°
2026-04-26 11:45 48.47694 14.48274 26271 ft 462 kts 84°
2026-04-26 11:45 48.47926 14.53083 25836 ft 459 kts 84°
2026-04-26 11:45 48.48161 14.57901 25597 ft 460 kts 84°
2026-04-26 11:46 48.48395 14.62698 25350 ft 459 kts 84°
2026-04-26 11:46 48.48623 14.67450 25111 ft 457 kts 84°
2026-04-26 11:46 48.48848 14.72234 24872 ft 456 kts 84°
2026-04-26 11:46 48.49071 14.77012 24643 ft 455 kts 84°
2026-04-26 11:47 48.49290 14.81713 24407 ft 453 kts 84°
2026-04-26 11:47 48.49511 14.86472 24176 ft 452 kts 83°
2026-04-26 11:47 48.49730 14.91200 23948 ft 451 kts 83°
2026-04-26 11:47 48.49945 14.95916 23690 ft 449 kts 83°
2026-04-26 11:48 48.50153 15.00549 22984 ft 445 kts 83°
2026-04-26 11:48 48.50358 15.05198 22318 ft 440 kts 83°
2026-04-26 11:48 48.50560 15.09799 21670 ft 435 kts 83°
2026-04-26 11:48 48.50757 15.14273 21065 ft 431 kts 83°
2026-04-26 11:49 48.50955 15.18774 20467 ft 427 kts 83°
2026-04-26 11:49 48.51149 15.23225 19911 ft 423 kts 82°
2026-04-26 11:49 48.51337 15.27640 19339 ft 420 kts 82°
2026-04-26 11:49 48.51518 15.32014 18797 ft 416 kts 82°
2026-04-26 11:50 48.51698 15.36376 18197 ft 414 kts 82°
2026-04-26 11:50 48.51877 15.40692 17634 ft 410 kts 82°
2026-04-26 11:50 48.51951 15.44943 17095 ft 409 kts 89°
2026-04-26 11:50 48.51707 15.49168 16894 ft 397 kts 91°
2026-04-26 11:51 48.51346 15.53277 16602 ft 395 kts 101°
2026-04-26 11:51 48.50312 15.57077 16348 ft 400 kts 119°
2026-04-26 11:51 48.48607 15.60411 16101 ft 401 kts 129°
2026-04-26 11:51 48.46786 15.63602 15855 ft 400 kts 129°
2026-04-26 11:52 48.44959 15.66770 15587 ft 399 kts 130°
2026-04-26 11:52 48.43754 15.68845 15425 ft 397 kts 130°
2026-04-26 11:52 48.41322 15.72976 15121 ft 397 kts 130°
2026-04-26 11:52 48.39486 15.76083 14878 ft 396 kts 130°
2026-04-26 11:53 48.37658 15.79180 14639 ft 395 kts 130°
2026-04-26 11:53 48.35836 15.82269 14361 ft 394 kts 130°
2026-04-26 11:53 48.34023 15.85345 13924 ft 390 kts 130°
2026-04-26 11:54 48.30459 15.91409 12909 ft 383 kts 130°
2026-04-26 11:54 48.28701 15.94406 12409 ft 380 kts 130°
2026-04-26 11:54 48.26957 15.97384 11887 ft 377 kts 130°
2026-04-26 11:54 48.25234 16.00327 11423 ft 373 kts 130°
2026-04-26 11:55 48.23547 16.03207 10946 ft 370 kts 130°
2026-04-26 11:55 48.21841 16.06099 10440 ft 368 kts 130°
2026-04-26 11:55 48.20143 16.08962 9916 ft 367 kts 130°
2026-04-26 11:55 48.18458 16.11816 9367 ft 364 kts 130°
2026-04-26 11:56 48.16793 16.14648 8851 ft 360 kts 130°
2026-04-26 11:56 48.15163 16.17450 8473 ft 351 kts 131°
2026-04-26 11:56 48.13609 16.20178 8342 ft 337 kts 130°
2026-04-26 11:56 48.12121 16.22804 8212 ft 323 kts 130°
2026-04-26 11:57 48.10723 16.25285 7794 ft 310 kts 130°
2026-04-26 11:57 48.09354 16.27739 7150 ft 305 kts 130°
2026-04-26 11:57 48.08010 16.30183 6485 ft 302 kts 130°
2026-04-26 11:57 48.06689 16.32592 6073 ft 297 kts 130°
2026-04-26 11:58 48.05789 16.34202 5988 ft 298 kts 130°
2026-04-26 11:58 48.04468 16.36568 5996 ft 296 kts 130°
2026-04-26 11:58 48.03150 16.38906 5788 ft 297 kts 130°
2026-04-26 11:58 48.01825 16.41212 5489 ft 289 kts 130°
2026-04-26 11:59 48.00510 16.43467 5153 ft 285 kts 130°
2026-04-26 11:59 47.99204 16.45669 4802 ft 281 kts 130°
2026-04-26 11:59 47.97912 16.47841 4451 ft 278 kts 130°
2026-04-26 11:59 47.96628 16.49973 4078 ft 274 kts 130°
2026-04-26 12:00 47.95346 16.52058 3995 ft 271 kts 130°
2026-04-26 12:00 47.94076 16.54114 4005 ft 273 kts 131°
2026-04-26 12:00 47.92777 16.56218 4005 ft 272 kts 130°
2026-04-26 12:00 47.91462 16.58215 3993 ft 273 kts 141°
2026-04-26 12:01 47.89799 16.59642 4003 ft 275 kts 151°
2026-04-26 12:01 47.88099 16.60776 3992 ft 263 kts 162°
2026-04-26 12:01 47.86409 16.61519 3982 ft 244 kts 165°
2026-04-26 12:01 47.84875 16.62438 3982 ft 234 kts 141°
2026-04-26 12:02 47.83904 16.64268 3985 ft 217 kts 104°
2026-04-26 12:02 47.83734 16.66343 3983 ft 198 kts 79°
2026-04-26 12:02 47.84170 16.68158 3995 ft 179 kts 39°
2026-04-26 12:02 47.85212 16.68943 3997 ft 168 kts 357°
2026-04-26 12:03 47.86332 16.68583 4004 ft 170 kts 342°
2026-04-26 12:03 47.87471 16.68113 3996 ft 170 kts 343°
2026-04-26 12:03 47.88616 16.67643 3994 ft 169 kts 343°
2026-04-26 12:03 47.89757 16.67168 4004 ft 170 kts 343°
2026-04-26 12:04 47.90881 16.66699 4002 ft 170 kts 343°
2026-04-26 12:04 47.92026 16.66219 3968 ft 171 kts 343°
2026-04-26 12:04 47.93174 16.65738 3814 ft 170 kts 344°
2026-04-26 12:04 47.94303 16.65264 3608 ft 172 kts 344°
2026-04-26 12:05 47.95463 16.64777 3388 ft 173 kts 344°
2026-04-26 12:05 47.96624 16.64289 3162 ft 173 kts 344°
2026-04-26 12:05 47.97784 16.63802 2920 ft 173 kts 344°
2026-04-26 12:05 47.98937 16.63317 2704 ft 171 kts 344°
2026-04-26 12:06 48.00048 16.62850 2455 ft 159 kts 344°
2026-04-26 12:06 48.01052 16.62427 2243 ft 144 kts 345°
2026-04-26 12:06 48.01976 16.62038 2070 ft 130 kts 343°
2026-04-26 12:06 48.02831 16.61679 1894 ft 126 kts 345°
2026-04-26 12:07 48.03659 16.61329 1727 ft 121 kts 346°
2026-04-26 12:07 48.04478 16.60984 1551 ft 123 kts 346°
2026-04-26 12:07 48.05304 16.60636 1385 ft 122 kts 346°
2026-04-26 12:07 48.06113 16.60295 1213 ft 120 kts 345°
2026-04-26 12:08 48.06916 16.59956 1051 ft 122 kts 345°
2026-04-26 12:08 48.07739 16.59608 875 ft 122 kts 345°
2026-04-26 12:08 48.08561 16.59262 726 ft 125 kts 344°
2026-04-26 12:08 48.09377 16.58918 616 ft 113 kts 345°
2026-04-26 12:09 48.09986 16.58661 616 ft 66 kts 344°
2026-04-26 12:09 48.10287 16.58532 615 ft 31 kts 340°
2026-04-26 12:09 48.10410 16.58393 610 ft 13 kts 305°
2026-04-26 12:09 48.10451 16.58288 610 ft 12 kts 299°
2026-04-26 12:10 48.10500 16.58177 616 ft 14 kts 317°
2026-04-26 12:10 48.10593 16.58125 615 ft 15 kts 344°
2026-04-26 12:10 48.10700 16.58080 620 ft 17 kts 345°
2026-04-26 12:10 48.10815 16.58031 620 ft 18 kts 344°
2026-04-26 12:11 48.10938 16.57979 615 ft 19 kts 344°
2026-04-26 12:11 48.11051 16.57932 617 ft 11 kts 344°
2026-04-26 12:11 48.11113 16.57857 610 ft 13 kts 294°
2026-04-26 12:11 48.11157 16.57717 621 ft 16 kts 296°
2026-04-26 12:12 48.11210 16.57557 613 ft 18 kts 296°
2026-04-26 12:12 48.11258 16.57409 621 ft 10 kts 296°
2026-04-26 12:12 48.11304 16.57331 615 ft 11 kts 347°
2026-04-26 12:12 48.11351 16.57359 618 ft 12 kts 26°
2026-04-26 12:13 48.11432 16.57369 621 ft 10 kts 313°
2026-04-26 12:13 48.11467 16.57263 618 ft 13 kts 295°
2026-04-26 12:13 48.11503 16.57153 610 ft 11 kts 297°
2026-04-26 12:13 48.11542 16.57033 612 ft 14 kts 296°
2026-04-26 12:14 48.11587 16.56895 620 ft 12 kts 296°
2026-04-26 12:14 48.11618 16.56799 618 ft 10 kts 296°
2026-04-26 12:14 48.11644 16.56720 612 ft 4 kts 296°
2026-04-26 12:14 48.11644 16.56678 618 ft 3 kts 246°
2026-04-26 12:15 48.11628 16.56657 619 ft 3 kts 211°
2026-04-26 12:15 48.11610 16.56646 610 ft 3 kts 202°
2026-04-26 12:15 48.11596 16.56636 616 ft 2 kts 204°
2026-04-26 12:15 48.11589 16.56632 613 ft 0 kts 204°